This demonstration page uses our WeatherBlox Daily Observations layout. Learn more.

Left ArrowRight Arrow

Hourly Observations for June 5, 2019

Temp ( °F °C ) Dew Point ( °F °C ) Humidity (%) Winds ( mph kmh ) Pressure ( in mb ) Visibility ( mi km ) Precip ( " mm )
12:53 am 00:53 Clear 67 19.4 58 14.4 73 73 N N/A 29.91 1013 10 16 N/A
1:53 am 01:53 Mostly Cloudy 67 19.4 59 15 76 76 E 3 6 29.90 1012 10 16 N/A
2:53 am 02:53 Mostly Cloudy 65 18.3 61 16.1 87 87 N N/A 29.88 1012 10 16 N/A
3:41 am 03:41 Cloudy with Nearby Thunderstorms 66 18.9 63 17.2 90 90 N N/A 29.88 1012 4 6 0.03 0.76
3:49 am 03:49 Cloudy with Light Thunderstorms 64 18 63 17 94 94 NW 7 11 29.89 1012 2 2 0.05 1.27
3:53 am 03:53 Cloudy with Light Thunderstorms 66 18.9 62 16.7 87 87 NW 13 20 29.89 1012 2 3 0.05 1.27
4:04 am 04:04 Cloudy with Light Thunderstorms 66 18.9 63 17.2 90 90 N N/A 29.87 1011 9 14 N/A
4:26 am 04:26 Mostly Cloudy with Nearby Thunderstorms 65 18.3 63 17.2 93 93 S 3 6 29.86 1011 7 11 N/A
4:46 am 04:46 Partly Cloudy 65 18.3 63 17.2 93 93 N N/A 29.86 1011 9 14 N/A
4:53 am 04:53 Mostly Cloudy 65 18.3 63 17.2 93 93 N N/A 29.85 1011 8 13 N/A
5:53 am 05:53 Mostly Cloudy 65 18.3 63 17.2 93 93 N N/A 29.85 1011 10 16 N/A
6:53 am 06:53 Mostly Cloudy with Light Rain 66 18.9 64 17.8 93 93 N N/A 29.85 1011 6 10 0.01 0.25
7:53 am 07:53 Mostly Sunny 68 20 65 18.3 90 90 N N/A 29.85 1011 9 14 N/A
8:53 am 08:53 Mostly Cloudy 71 21.7 65 18.3 81 81 VRB 7 11 29.84 1011 10 16 N/A
9:53 am 09:53 Partly Cloudy 73 22.8 66 18.9 79 79 WSW 10 17 29.83 1010 10 16 N/A
10:12 am 10:12 Mostly Cloudy 73 22.8 67 19.4 81 81 WSW 9 15 29.82 1010 10 16 N/A
10:53 am 10:53 Mostly Cloudy 74 23.3 68 20 82 82 WSW 10 17 29.82 1010 10 16 N/A
11:53 am 11:53 Cloudy 74 23.3 68 20 82 82 SW 9 15 29.81 1010 10 16 N/A
12:53 pm 12:53 Cloudy 75 23.9 68 20 79 79 SW 8 13 29.82 1010 10 16 N/A
1:53 pm 13:53 Cloudy 77 25 69 20.6 77 77 WSW 8 13 29.80 1009 10 16 N/A
2:53 pm 14:53 Cloudy 79 26.1 71 21.7 77 77 WSW 9 15 29.80 1009 10 16 N/A
3:05 pm 15:05 Cloudy 80 26.7 71 21.7 74 74 WSW 9 15 29.78 1009 10 16 N/A
3:20 pm 15:20 Cloudy 78 25.6 70 21.1 76 76 WSW 9 15 29.78 1009 10 16 N/A
3:45 pm 15:45 Mostly Cloudy 80 26.7 71 21.7 74 74 W 7 11 29.77 1008 10 16 N/A
3:53 pm 15:53 Mostly Cloudy 81 27.2 71 21.7 72 72 WSW 7 11 29.78 1009 10 16 N/A
4:02 pm 16:02 Mostly Cloudy with Haze 82 27.8 72 22.2 72 72 VRB 7 11 29.76 1008 3 4 N/A
4:09 pm 16:09 Mostly Cloudy with Haze 81 27.2 71 21.7 72 72 WSW 6 9 29.76 1008 2 3 N/A
4:18 pm 16:18 Mostly Cloudy 81 27.2 71 21.7 72 72 WSW 6 9 29.76 1008 10 16 N/A
4:53 pm 16:53 Partly Cloudy 83 28.3 71 21.7 67 67 W 7 11 29.76 1008 10 16 N/A
5:53 pm 17:53 Sunny 79 26.1 72 22.2 79 79 N N/A 29.73 1007 10 16 N/A
6:20 pm 18:20 Partly Cloudy with Nearby Thunderstorms 77 25 72 22.2 85 85 N N/A 29.71 1006 10 16 N/A
6:53 pm 18:53 Mostly Cloudy with Nearby Thunderstorms 75 23.9 69 20.6 82 82 W 7 11 29.75 1008 10 16 N/A
7:17 pm 19:17 Mostly Cloudy with Light Rain 70 21.1 67 19.4 90 90 SW 13 20 29.78 1009 7 11 0.01 0.25
7:53 pm 19:53 Mostly Sunny 70 21.1 67 19.4 90 90 SSW 3 6 29.74 1007 10 16 0.01 0.25
8:53 pm 20:53 Sunny 69 20.6 66 18.9 90 90 W 5 7 29.75 1008 10 16 N/A
9:53 pm 21:53 Mostly Clear 68 20 66 18.9 93 93 WSW 5 7 29.79 1009 10 16 N/A
10:53 pm 22:53 Mostly Clear 68 20 66 18.9 93 93 WSW 3 6 29.81 1009 10 16 N/A
11:53 pm 23:53 Clear 67 19.4 65 18.3 93 93 WSW 3 6 29.80 1009 10 16 N/A

Powered by AerisWeather